Northwest Alabama Regional Airport
KMSL : now visible

Airfield :











YOU CAN JOIN US ON...

 
LOGIN :

Register | Disclaimer

   EN    FR    IT 

 









Legend :    VFR   Marginal VFR   IFR   Intensive IFR   Very Intensive IFR
Visi :
Ceiling :
>= 8 km
>= 3000ft
5 to 8 km
1000 to 3000 ft
1500m to 5 km
500 to 1000 ft
800 to 1500m
200 to 500 ft
< 800m
< 200 ft
Symbols :   Thunderstorms  Fog  Heavy snow  Heavy precipitations  Wind > 20 kt






- Airport Elevation : 551 ft
- IATA code : MSL


KMSL - Northwest Alabama Regional

CURRENT METAR :
  • 082153Z AUTO 00000KT 10SM CLR 13/M06 A3005 RMK AO2 SLP176 T01331056

EXPIRED METARs :
  • 082053Z AUTO 00000KT 10SM CLR 13/M06 A3005 RMK AO2 SLP175 T01331056 56006
  • 081953Z AUTO 32005KT 10SM CLR 13/M06 A3005 RMK AO2 SLP175 T01281061

TAF KMSL
Valid from the 08 at 18:00 until the 09 at 18:00 UTC


081720Z 0818/0918 36005KT P6SM SKC
FM090000 10003KT P6SM SCT250
FM091500 15008G18KT P6SM BKN250
KZME FIR / North America



MET'MAP, your aeronautical weather chart ! - Copyright ORBIFLY December 2007 - Disclaimer

ORBIFLY MET'MAP TEAM :

Programming & Development : Alexandra Zaïnal
Concept & original design : Baudouin d'Aumeries
Assistance for programming : Marc-Olivier Méhu
Technical & hardware support : Manuel Goepfert

Contact : metmap@orbifly.com




SOURCES & CREDITS :

   NOAA       Earth
Advisory